Location: Unspecified
(0.0000°N, 0.0000°E)
Time: 23:57:25
(UTC+01:00)

Iridium 84 - Visible Passes

Search period start: 23 January 2017 00:00
Search period end: 02 February 2017 00:00
Orbit: 776 x 779 km, 86.4° (Epoch: 23 January)

Date Brightness Start Highest point End Pass type
(mag) Time Alt. Az. Time Alt. Az. Time Alt. Az.
23 Jan 5.5 19:57:53 10° S 20:03:07 79° E 20:08:18 10° N visible
24 Jan 8.5 21:07:52 10° WSW 21:10:04 13° W 21:12:17 10° WNW visible
25 Jan 7.5 20:32:11 10° SSW 20:36:37 28° W 20:41:03 10° NNW visible
26 Jan 6.0 19:58:00 10° S 20:03:10 64° W 20:08:19 10° N visible
28 Jan 8.4 20:33:15 10° SW 20:36:40 18° W 20:40:05 10° NW visible
29 Jan 7.1 19:58:24 10° SSW 20:03:14 39° W 20:08:03 10° NNW visible
31 Jan 8.6 06:20:01 10° ENE 06:22:46 14° E 06:25:32 10° ESE visible
31 Jan 8.9 20:35:54 10° W 20:36:44 10° W 20:37:33 10° W visible
01 Feb 8.1 19:59:08 10° SW 20:03:17 24° W 20:07:26 10° NW visible
